GFSCGP_sfc_rhum_144.txt.gz
RH
91 99 84 60 66 56 54 53 58 58 47 45 41 39 37 37 42 46 46 44 50 58 61 66 69 71 73 75 76 75 74 73 79 92 96 96 95 95 93 73 65 64 64 63
95 89 56 54 58 50 49 53 66 56 47 44 47 40 35 36 38 39 41 43 43 49 58 66 74 77 76 74 76 78 75 74 76 86 94 95 96 96 95 78 65 64 60 61
98 87 62 53 61 52 65 49 64 58 51 43 45 47 42 36 34 31 34 36 37 43 48 57 74 80 81 79 80 78 77 76 74 80 89 96 96 96 94 82 78 69 60 61
94 63 53 55 56 57 55 51 52 55 59 69 48 59 37 42 41 37 32 33 33 34 37 47 61 82 83 82 83 81 81 79 72 78 84 89 95 95 95 92 81 73 61 56
91 72 57 57 59 55 56 54 52 49 51 59 50 64 36 44 40 38 36 36 34 33 34 36 47 68 82 83 87 89 87 82 77 77 79 88 90 95 94 89 85 76 73 63
82 62 68 63 58 55 56 44 50 59 59 67 67 56 41 45 43 50 53 44 40 40 52 64 75 78 84 87 88 90 88 85 83 79 77 80 87 89 91 87 86 84 81 78
84 65 67 59 56 51 50 62 86 75 78 73 71 51 35 38 70 62 52 64 62 68 71 72 77 84 87 88 89 89 90 88 88 87 82 78 80 84 88 87 86 83 82 79
96 90 68 66 62 62 60 56 80 67 74 73 66 57 36 50 76 76 68 73 74 74 74 77 79 80 83 86 87 89 90 91 89 90 88 85 80 83 83 85 87 86 83 79
77 82 69 69 67 56 58 80 56 73 81 79 81 56 47 67 76 78 78 76 78 78 76 77 80 80 81 83 84 88 90 90 90 90 92 91 88 82 81 79 84 86 82 73
64 81 71 61 61 56 61 59 67 82 65 53 73 68 68 76 70 69 75 72 74 75 76 74 72 62 61 63 74 86 90 90 89 90 92 91 92 87 82 79 77 76 74 73
66 66 69 59 66 60 58 65 72 68 73 66 54 46 62 64 67 69 72 69 68 70 68 55 53 53 54 58 62 71 82 88 90 91 92 93 94 92 88 83 77 73 70 69
75 68 82 71 78 77 78 67 58 59 58 78 62 52 64 70 68 69 71 60 64 65 52 52 53 56 58 61 65 68 70 76 83 88 91 92 92 93 94 93 86 78 74 70
58 68 77 58 54 66 76 77 64 62 69 71 65 40 61 76 74 71 62 54 46 48 51 53 54 56 59 61 61 63 67 73 76 81 85 86 87 90 91 92 92 90 81 76
63 70 53 63 54 62 71 73 72 65 81 59 54 55 66 71 66 62 55 49 45 49 49 54 58 62 63 60 62 66 70 75 76 73 74 74 79 86 89 90 90 91 89 83
61 70 77 74 72 72 64 62 72 65 63 49 52 55 47 65 67 57 49 45 46 51 54 55 60 65 64 62 65 68 70 71 75 73 74 76 80 83 86 87 89 89 90 89
60 75 63 71 56 55 55 62 70 72 70 61 68 58 49 63 62 50 44 45 46 50 52 56 62 63 61 65 67 69 71 72 76 75 76 77 79 81 83 86 88 89 88 89
64 71 73 70 67 51 45 44 65 74 72 60 63 49 60 70 60 50 46 47 45 51 53 58 64 64 67 68 69 72 74 75 75 76 75 77 80 82 83 86 87 85 86 89
63 63 76 77 45 54 46 55 48 65 67 65 68 60 56 57 59 48 51 48 52 55 60 66 68 68 70 72 72 75 73 74 75 74 76 77 82 84 85 88 87 88 89 90
65 63 76 65 52 35 36 50 52 53 31 60 58 58 56 62 56 68 58 56 57 66 69 68 71 72 76 74 76 75 72 74 68 69 74 77 82 85 86 85 86 86 90 89
68 65 50 72 40 20 23 57 48 45 31 39 67 60 62 56 62 54 60 66 69 71 72 71 75 73 74 77 79 68 68 66 61 70 75 78 81 84 86 85 87 88 90 87
80 82 71 76 64 42 34 57 50 42 25 55 70 60 65 53 54 58 64 72 74 73 70 74 75 72 73 74 73 62 65 55 65 74 76 76 77 80 83 88 88 90 88 90
68 75 82 80 70 36 47 58 39 31 65 67 68 62 61 59 65 70 70 73 71 70 69 70 67 66 68 67 66 60 56 57 68 72 73 72 74 72 70 88 89 91 92 91
55 45 51 56 46 35 54 54 61 52 54 67 59 60 55 60 65 72 74 73 70 67 64 68 66 61 57 60 64 61 52 63 70 73 69 71 74 76 79 89 86 87 89 90
70 65 58 62 55 54 47 61 61 60 66 61 60 56 56 56 70 75 72 70 64 63 62 65 59 54 53 56 60 64 64 67 72 71 72 75 79 71 70 73 77 85 87 86
52 65 62 65 55 60 52 61 63 59 60 59 60 61 56 65 73 72 68 64 63 61 62 63 58 58 55 58 60 60 61 67 71 74 77 80 80 82 79 76 79 83 81 84
62 55 56 48 44 46 50 68 64 60 59 60 61 68 70 68 68 63 62 63 61 62 64 56 57 60 58 62 61 60 62 69 73 76 78 82 82 81 82 85 82 72 73 74

GFSCGP_sfc_rhum_150.txt.gz
RH
86 98 100 95 87 45 36 35 36 34 33 33 39 36 38 39 38 38 37 38 40 41 39 46 49 50 50 48 49 47 47 47 47 51 48 52 51 56 58 51 45 40 38 39
96 99 81 89 82 56 37 36 35 38 33 30 37 39 36 37 36 35 35 34 35 37 40 45 52 52 52 52 52 52 48 49 47 48 50 52 54 58 58 58 48 44 40 39
92 92 81 72 90 55 36 33 40 49 36 30 33 39 39 34 32 32 31 30 29 34 35 42 51 53 55 55 56 52 51 52 52 52 56 60 62 64 62 59 56 51 43 41
97 89 90 81 94 53 43 31 35 39 39 49 31 55 36 31 33 30 30 30 28 33 32 37 45 52 57 55 55 54 56 56 53 55 57 59 57 56 57 60 59 55 48 42
98 98 95 96 66 37 38 35 34 35 33 37 32 46 24 29 30 29 27 26 26 27 29 31 40 46 50 55 60 57 56 59 56 58 57 58 59 54 53 56 60 59 56 51
82 83 80 58 46 40 36 33 38 33 34 61 39 30 26 27 25 25 24 22 23 23 24 27 27 35 45 58 62 61 57 59 60 59 59 60 62 58 55 53 53 51 51 52
94 73 52 50 41 35 33 39 88 83 92 61 42 30 18 19 26 25 25 24 25 25 23 33 43 38 42 56 60 60 59 60 58 61 60 59 59 58 58 54 50 50 49 51
98 93 56 53 46 39 35 38 65 79 58 52 43 34 22 22 44 43 35 32 34 35 39 48 53 53 56 58 61 59 59 57 58 59 59 60 60 58 56 55 54 52 50 47
84 83 52 52 48 39 37 48 36 43 42 37 36 30 30 42 52 45 45 44 46 48 51 54 56 56 58 60 61 62 60 62 59 55 56 54 54 57 57 56 55 54 53 50
45 65 54 48 45 41 38 35 45 52 62 33 38 35 33 44 49 48 52 48 52 54 56 55 53 49 44 46 49 53 56 55 55 55 53 52 52 54 56 55 55 53 51 51
41 45 55 47 51 40 42 45 45 40 43 28 22 19 30 36 44 50 47 49 52 54 53 44 36 35 36 37 38 40 42 46 48 51 52 54 54 57 56 55 53 53 51 50
45 44 57 50 55 52 46 37 29 32 42 39 31 22 32 40 37 41 46 48 48 49 41 34 32 32 33 34 34 37 41 42 46 46 46 48 48 49 47 44 45 45 47 46
43 46 63 50 45 48 45 46 37 35 39 38 34 22 40 44 41 43 44 45 45 41 32 30 31 30 31 32 34 38 41 42 42 41 39 40 40 40 40 41 42 43 45 44
51 41 42 46 40 40 43 48 40 35 39 28 25 22 32 44 43 43 42 39 38 35 32 30 30 30 32 35 37 38 40 40 41 40 40 40 41 43 43 44 44 44 43 44
50 52 57 45 54 48 43 41 45 40 28 28 23 23 21 35 37 38 39 35 36 33 31 32 31 31 33 37 39 41 41 40 41 41 43 46 45 45 44 44 44 42 43 41
46 58 49 59 43 42 44 41 42 43 42 34 33 28 20 25 32 39 36 33 34 32 31 31 34 35 36 37 40 43 41 43 43 43 44 45 42 41 42 40 40 38 36 35
48 55 58 51 43 39 39 32 40 41 40 28 31 19 28 33 40 39 35 31 28 28 30 33 35 36 36 39 42 41 44 46 42 42 38 36 36 36 36 36 34 33 33 33
45 46 53 58 32 51 26 29 32 36 38 35 35 33 29 30 36 36 32 29 26 26 32 34 35 38 40 41 45 46 48 43 37 35 35 36 38 35 35 36 34 33 34 36
44 40 48 46 34 25 21 26 34 31 22 29 35 31 34 39 36 35 34 28 24 27 28 33 35 37 42 42 46 44 40 38 35 34 35 36 39 37 38 39 38 40 42 43
46 36 35 37 35 25 15 26 31 30 17 22 32 32 38 39 34 23 35 32 32 34 37 41 42 42 42 44 41 37 35 32 30 35 40 39 39 39 39 40 41 45 46 49
53 50 50 40 38 27 19 30 32 20 17 28 38 44 43 41 32 42 36 40 38 41 46 47 45 43 40 41 39 33 33 28 35 41 41 40 39 41 41 44 46 48 47 48
46 48 46 44 44 46 28 36 24 22 32 37 42 48 45 41 47 46 44 49 50 54 54 46 47 46 44 42 35 30 28 32 34 38 38 37 36 39 43 46 45 44 42 42
39 33 26 35 28 26 31 31 30 31 32 37 41 46 40 46 49 50 52 51 51 51 50 45 41 40 35 34 33 26 23 29 32 34 32 33 34 38 41 43 40 41 40 42
43 38 32 34 29 33 27 30 33 35 35 38 39 42 40 40 46 49 52 52 50 47 44 40 34 28 28 29 31 29 29 31 34 32 31 32 36 39 38 39 44 45 43 40
37 44 37 35 31 33 34 36 34 36 38 40 41 42 40 42 48 48 51 49 46 44 42 35 30 29 27 31 31 29 32 33 34 33 34 35 38 39 41 42 42 46 43 45
42 37 37 30 30 26 32 37 42 41 42 41 41 45 46 44 49 49 48 44 42 40 40 36 35 33 33 36 36 34 34 36 37 38 38 40 44 43 46 49 47 55 65 66

GFSCGP_sfc_rhum_153.txt.gz
RH
83 97 98 76 70 66 91 82 44 26 26 31 33 32 35 36 34 34 34 39 40 44 40 38 42 44 41 39 41 42 43 43 45 49 47 48 51 52 53 50 44 40 38 38
94 97 67 77 90 95 94 86 36 25 29 26 24 35 33 35 35 32 34 36 38 41 41 44 48 47 47 46 47 46 44 45 43 45 46 47 51 52 53 57 50 45 40 39
92 92 74 88 97 97 84 50 34 45 34 24 24 38 41 35 32 31 30 32 34 38 40 44 49 50 52 52 53 49 47 47 48 48 54 56 56 58 59 60 59 53 44 42
96 88 87 82 93 93 55 30 28 35 40 42 27 51 42 37 37 34 32 32 31 34 33 36 45 49 55 53 55 51 51 52 51 53 56 57 56 55 54 58 58 57 49 46
98 92 92 86 76 67 60 31 39 31 32 25 33 51 35 33 38 33 32 30 28 29 31 34 40 43 47 53 61 56 53 55 52 58 55 58 57 52 53 55 57 59 57 54
88 84 90 76 72 51 35 35 38 32 30 58 29 33 34 36 31 30 28 26 26 26 27 29 33 40 46 56 63 62 54 58 58 57 57 59 60 58 58 56 55 55 53 54
95 90 62 57 49 36 36 47 88 83 96 63 30 32 21 24 23 25 26 24 24 24 24 27 29 36 45 60 62 61 57 58 56 57 57 57 59 60 60 57 55 52 50 50
95 93 63 46 43 40 36 51 75 82 60 55 35 41 22 23 26 29 21 22 23 25 22 28 34 35 40 50 60 57 56 51 51 53 56 57 59 62 58 56 56 54 51 49
68 81 45 42 39 36 37 54 39 47 37 43 39 26 29 33 41 33 31 29 31 28 33 44 47 48 48 50 53 55 53 54 52 51 52 52 54 56 56 55 54 54 53 51
45 69 46 41 39 35 36 28 58 59 68 44 39 31 41 38 42 37 40 37 37 38 45 49 50 52 51 54 54 54 52 51 51 50 50 49 48 48 51 51 52 51 49 50
37 41 50 41 46 37 35 36 38 36 37 36 32 30 26 31 33 40 38 38 42 46 48 48 45 39 37 37 38 40 41 44 46 47 46 49 49 51 50 50 47 46 46 45
37 41 56 48 46 44 42 34 30 35 30 28 25 29 28 29 29 35 36 40 42 46 45 38 33 30 31 31 32 35 36 38 40 40 42 44 45 44 43 38 38 38 40 39
44 43 60 50 40 41 42 36 34 30 32 32 34 28 34 35 32 32 38 39 42 43 35 30 28 28 29 29 30 33 36 38 38 37 36 36 37 36 35 36 36 37 38 38
54 38 43 54 45 39 42 40 34 33 43 26 22 20 36 38 35 36 36 39 40 35 31 28 26 26 27 29 32 32 34 34 36 36 35 36 37 39 38 39 39 38 37 37
45 55 52 38 43 44 44 36 37 38 29 30 24 20 21 33 33 36 36 36 36 31 29 28 26 26 29 33 33 34 36 36 35 36 37 41 40 39 38 36 34 32 32 30
44 61 47 58 41 40 46 33 32 36 33 32 26 24 16 25 28 33 33 34 34 31 28 27 26 28 29 33 33 36 36 37 36 38 40 40 34 33 34 32 30 29 29 28
47 54 55 48 40 39 43 30 30 31 33 26 27 21 20 28 31 32 32 32 32 30 28 27 29 31 30 32 35 36 38 40 38 38 31 30 28 29 30 29 28 30 30 29
44 44 60 62 34 52 25 26 29 27 26 27 23 26 24 26 27 30 29 30 28 27 27 28 28 31 32 34 37 41 42 38 33 30 29 30 31 30 31 32 32 31 32 35
39 36 43 49 34 25 21 25 29 30 23 24 29 25 26 31 30 31 30 26 24 23 24 27 28 31 35 38 41 41 41 36 31 30 29 31 33 33 34 38 37 37 38 42
41 36 38 35 38 30 17 24 25 26 21 20 24 24 25 32 31 22 31 28 24 25 26 31 32 35 36 38 39 37 34 29 26 31 35 33 33 35 36 37 37 41 42 44
52 47 48 42 39 27 23 26 27 23 24 28 30 35 34 36 32 35 31 29 28 31 35 37 38 37 37 38 35 32 30 26 32 35 35 35 34 37 35 38 40 42 44 45
40 47 46 41 44 51 24 31 23 24 30 31 37 42 38 35 40 38 37 38 40 45 46 39 41 43 41 38 30 29 26 30 28 30 32 31 29 30 32 38 37 37 35 36
34 30 26 32 29 20 24 27 26 26 28 33 36 41 38 41 44 44 46 44 46 46 44 40 41 40 32 29 24 20 22 24 25 26 26 26 26 29 31 31 35 39 40 41
30 30 29 28 21 25 22 23 27 28 30 33 34 38 35 39 43 45 44 46 45 44 43 39 36 31 28 24 25 24 25 25 26 26 26 27 29 29 29 32 38 42 44 43
33 36 30 28 23 24 26 26 24 26 30 34 36 37 36 38 41 43 45 45 44 42 40 33 27 25 24 25 25 24 27 26 29 28 28 29 32 32 33 34 38 43 41 44
35 32 34 26 25 24 31 32 34 34 36 35 37 40 38 37 41 41 42 41 41 38 34 31 29 28 30 31 31 29 28 29 30 31 35 38 41 40 42 44 44 52 59 63

GFSCGP_sfc_rhum_156.txt.gz
RH
83 93 91 84 77 72 70 72 73 62 51 74 64 40 41 46 47 48 50 55 57 56 52 49 50 51 51 54 56 57 58 58 68 73 76 78 82 78 76 70 54 52 52 51
93 95 68 65 66 74 78 87 89 66 58 70 50 40 36 45 47 46 49 55 56 55 53 54 61 58 57 60 59 59 57 59 62 67 69 72 73 75 78 74 62 58 52 52
98 80 87 76 92 98 95 95 83 78 65 64 38 43 42 46 45 42 44 48 51 55 54 57 60 66 65 68 67 62 62 61 64 67 75 72 74 78 82 79 79 67 56 54
98 88 91 96 98 96 99 78 86 94 61 71 34 71 67 52 50 44 44 48 52 54 52 58 62 69 71 72 70 66 65 66 65 70 76 77 81 79 78 82 81 76 62 59
98 95 94 98 91 91 92 58 70 72 50 54 40 71 57 51 53 48 49 48 50 49 50 57 63 62 68 72 76 73 71 71 69 73 74 79 78 73 76 78 79 81 78 70
88 82 90 85 64 73 70 55 77 74 60 77 47 45 64 57 50 48 46 44 43 46 48 50 58 61 69 79 81 78 76 75 73 75 74 75 76 77 78 78 79 79 79 81
90 93 68 75 74 67 70 68 99 100 92 89 48 48 45 43 40 39 42 41 42 44 46 51 58 64 72 84 85 80 76 77 75 76 77 75 79 81 79 79 81 76 72 74
98 97 74 56 61 58 55 66 92 81 90 91 56 66 41 50 40 33 34 36 39 43 41 48 55 62 75 81 84 78 76 74 73 76 75 76 76 84 83 79 79 78 75 73
99 87 51 44 44 46 55 84 52 74 80 89 74 50 42 52 45 40 36 38 44 42 44 48 51 53 63 79 81 78 75 70 69 69 72 75 77 80 80 76 76 78 75 67
53 86 54 47 47 44 50 44 72 88 96 79 81 59 82 60 55 49 51 50 48 51 64 68 70 69 69 71 74 72 70 69 67 69 70 69 73 73 75 74 74 73 73 71
48 57 65 54 60 61 50 54 55 59 69 93 68 59 40 52 52 53 53 50 54 65 68 72 73 70 71 72 73 73 66 65 67 66 68 70 71 70 74 76 72 68 64 62
47 56 76 64 52 50 54 44 52 73 62 72 49 58 43 43 49 50 50 52 62 65 68 62 55 52 53 53 53 55 56 58 58 59 63 67 67 66 68 60 54 53 57 54
57 59 85 69 60 54 56 45 42 40 49 60 59 52 45 45 49 46 56 60 62 63 54 49 46 46 48 50 51 52 55 56 53 52 55 56 55 54 54 54 53 53 54 55
64 60 57 82 85 61 56 49 43 43 78 45 35 50 56 54 50 54 57 61 64 52 44 44 43 44 44 45 48 49 50 50 50 50 51 54 55 57 57 56 53 51 49 49
57 74 66 56 48 54 54 49 45 47 46 48 39 35 46 49 51 54 55 57 53 45 42 42 42 44 47 48 47 49 51 50 49 50 56 59 56 53 50 48 45 43 43 41
57 75 63 72 51 49 55 45 40 48 43 41 40 35 39 42 46 51 55 53 47 41 39 38 38 42 45 48 49 49 51 51 49 56 58 52 46 46 45 43 41 40 41 40
57 67 79 80 52 52 58 44 40 43 40 38 37 38 37 45 44 48 50 48 46 39 38 38 40 42 46 47 50 53 54 53 54 51 43 40 40 41 42 41 41 42 42 44
56 61 78 87 61 76 39 37 38 36 35 37 36 34 38 41 47 46 44 45 44 38 37 39 43 44 47 51 55 58 56 54 48 44 42 43 44 42 43 45 47 47 48 50
51 56 70 78 65 42 35 32 37 37 36 34 35 35 38 40 43 51 45 39 40 40 38 40 44 48 54 56 58 59 57 48 45 43 44 45 45 45 47 50 51 52 54 59
50 52 64 61 59 52 30 33 34 36 32 27 30 31 34 44 49 50 50 40 37 38 40 47 49 52 55 58 57 56 50 45 44 46 49 44 46 47 50 51 52 56 59 57
74 66 71 71 67 50 36 36 38 33 36 40 41 47 50 52 54 48 42 42 45 47 50 51 52 55 57 53 50 50 44 45 50 48 46 46 46 47 47 50 55 58 60 60
64 73 73 66 69 67 39 40 37 37 45 44 54 58 53 54 50 50 50 55 57 60 56 53 61 60 56 49 45 44 45 43 41 42 41 42 41 37 37 48 52 52 54 55
48 45 47 50 54 30 36 42 40 38 43 50 57 56 53 56 58 59 61 63 63 60 58 58 58 54 46 38 34 35 36 35 35 36 36 36 36 37 39 43 46 53 58 64
41 44 46 36 33 38 31 33 36 41 46 46 51 50 50 58 59 61 63 64 63 60 58 55 48 43 39 36 33 36 36 34 36 37 37 38 41 44 44 44 50 58 63 65
42 44 41 40 34 46 38 38 36 39 43 45 49 49 51 56 59 61 63 62 61 57 52 46 42 40 37 36 36 37 36 36 40 40 40 42 46 50 52 52 54 58 59 60
47 44 45 42 37 40 48 51 44 43 44 46 50 51 51 54 58 59 60 59 56 50 43 42 40 42 42 42 41 39 39 41 44 46 51 55 59 61 64 68 66 59 63 65

GFSCGP_sfc_rhum_159.txt.gz
RH
88 97 98 86 93 82 85 89 89 68 51 62 72 69 54 46 46 59 70 74 70 63 60 52 56 60 60 60 66 68 69 69 76 80 84 88 88 85 80 69 57 55 54 53
94 97 71 68 78 84 83 90 88 70 58 59 76 75 58 49 47 59 62 71 71 68 58 58 61 57 57 61 65 68 64 69 72 76 76 79 82 84 83 74 63 60 54 54
95 86 76 78 92 94 86 85 81 78 65 61 70 83 73 53 42 62 58 62 61 61 58 62 62 62 62 65 69 66 67 66 70 74 78 80 82 84 85 82 79 68 59 55
98 90 94 96 99 95 98 71 76 74 96 93 72 94 65 54 54 66 62 64 65 63 60 65 62 67 64 69 72 68 69 69 70 77 78 79 86 87 87 86 84 79 66 61
91 96 97 99 95 95 94 80 98 96 92 94 96 91 44 46 64 63 61 64 63 60 64 68 67 61 66 72 76 74 74 74 74 79 81 85 83 80 81 84 84 88 82 73
91 86 90 92 83 81 81 90 85 96 89 99 79 74 64 74 56 64 59 61 61 60 63 65 70 70 77 76 78 79 78 76 77 78 81 82 82 78 78 80 83 85 87 88
80 94 79 77 94 79 94 97 99 99 99 93 64 53 54 50 50 54 58 59 60 58 63 69 73 74 75 80 82 81 79 81 79 81 81 81 82 81 78 80 85 84 81 83
98 94 81 78 76 73 86 71 97 97 89 84 62 73 36 53 47 42 47 54 56 57 56 64 69 73 77 82 84 79 84 83 82 83 83 81 80 85 85 81 85 84 81 80
96 92 61 61 50 51 58 88 64 74 90 89 81 57 44 64 54 50 51 52 55 54 56 64 71 77 84 87 86 84 84 82 83 83 84 82 81 85 86 83 82 84 82 73
63 87 59 51 50 51 54 58 84 92 93 84 92 63 75 68 63 52 58 53 53 56 59 62 64 75 86 88 90 85 81 80 80 80 81 79 83 84 83 85 84 83 82 79
56 67 71 57 65 62 57 76 69 81 97 97 84 65 47 52 69 51 52 48 52 55 63 70 76 77 82 87 87 83 82 80 79 76 78 77 79 80 81 82 80 76 68 66
59 57 85 66 59 56 60 55 59 82 86 97 97 67 55 49 54 57 54 62 72 72 80 81 83 85 88 88 86 80 76 75 74 71 76 78 79 76 75 64 61 60 60 60
63 70 90 78 60 56 62 51 46 47 81 89 89 54 48 61 58 59 65 74 76 77 72 68 67 69 69 68 67 66 67 66 64 68 68 65 62 60 62 62 61 59 59 60
66 73 72 86 78 69 67 53 49 56 86 66 56 48 62 58 63 71 76 83 77 63 57 57 60 60 60 60 63 64 63 60 58 59 60 60 63 63 64 60 56 52 51 48
62 79 74 63 60 61 60 55 49 52 54 56 43 44 47 52 68 71 76 72 59 55 52 51 55 56 58 59 58 58 59 57 57 59 63 64 62 57 53 50 47 45 44 43
59 73 72 74 60 57 57 50 50 48 46 45 43 39 48 55 63 71 71 60 53 49 46 46 48 52 54 56 59 57 59 57 59 65 64 57 53 50 49 46 43 43 44 44
63 74 83 84 68 53 59 50 47 46 43 42 42 40 48 55 56 64 67 56 48 44 43 44 45 49 55 56 56 60 59 60 62 60 50 46 46 46 46 45 46 46 47 51
67 67 84 88 64 75 42 40 42 38 38 39 38 37 40 50 54 55 57 57 47 42 43 44 48 52 54 59 61 62 62 60 51 49 48 48 49 47 48 48 50 52 54 55
60 63 75 76 76 50 42 34 43 42 40 32 40 35 40 40 43 56 52 49 43 43 43 47 48 56 62 63 64 63 60 54 50 50 51 50 50 48 50 51 54 55 58 61
54 57 69 74 64 59 35 34 33 35 36 31 34 37 44 45 48 45 52 47 46 43 45 52 57 60 63 68 65 58 54 51 52 54 53 50 50 49 50 53 54 57 61 60
82 77 77 78 78 58 40 38 37 34 35 45 48 56 55 55 53 52 54 56 52 50 54 55 57 61 65 66 59 56 50 51 54 54 51 49 49 49 48 51 55 58 62 62
74 83 84 79 80 69 41 40 37 34 45 50 57 56 57 56 56 61 62 60 56 59 60 60 63 65 61 57 52 50 51 53 49 49 46 44 43 39 39 48 51 53 57 62
50 58 62 62 60 43 39 42 44 43 43 50 57 58 58 59 64 66 71 67 65 65 64 59 58 55 47 47 44 45 44 40 40 39 39 39 39 40 43 48 50 57 62 68
43 45 47 38 33 39 33 41 40 45 50 52 56 58 59 66 66 71 72 70 68 66 62 56 50 46 41 39 39 40 40 39 39 40 40 42 44 50 51 52 56 63 66 68
42 42 43 45 38 42 38 36 40 48 49 51 54 55 62 66 69 71 72 69 66 64 59 50 46 44 41 40 41 40 40 40 42 43 44 49 55 58 61 62 64 68 69 69
51 43 43 43 39 41 50 53 44 48 50 52 54 60 62 64 68 68 70 65 59 54 50 48 45 44 45 44 43 43 43 44 46 49 56 61 66 69 72 75 74 64 65 64